Starlink 3626

operational
NORAD ID: 51792 Int'l Des: 2022-017 Owner: SPXS Country: US Constellation: starlink
LEOCIRCULAR

Starlink 3626について

説明を読み込み中...

リアルタイム位置

3D地球を読み込み中...

次回通過

高度履歴

Altitude vs Time

uPlot chart will show altitude changes over time

軌道要素

1 51792U 22017AA 25305.99003163 .00001084 00000-0 86177-4 0 9998
2 51792 53.2161 202.3861 0001424 82.7034 277.4120 15.08842782204690
Epoch: Nov 1, 2025 • Age: 40 hours

現在のステータス

高度 539.6 km
速度 7.60 km/s
衛星直下点 15.42°N, 76.61°E
打ち上げ日 Feb 25, 2022
運用期間 3.6 years
タイプ internet

技術仕様

分類 Payload
質量 297.00 kg
乾燥質量 275.00 kg
総質量 297.00 kg
長さ 0.20 m
直径 2.80 m
スパン 9.00 m
形状 Box + pan
製造者 SPXS
バスタイプ Starlink
フェーズステータス In Orbit
所有者/国 SPXS/US

大規模コンステレーション

Loading constellations...